This is the latest recevied weather packets stored in our database for station/object CA3SQH-10. If no packets are shown the sender has not sent any weather packets the latest 10 day(s).
| Time | Temp. | Humidity | Pressure | Rain* | Wind** | Luminosity | Snow |
|---|---|---|---|---|---|---|---|
| 1777586713 | 20.56° C | 51% | 935.5 hPa | - | - | - | - |
| 1777585813 | 21.11° C | 50% | 935.4 hPa | - | - | - | - |
| 1777584913 | 21.67° C | 52% | 935.2 hPa | - | - | - | - |
| 1777584013 | 22.22° C | 52% | 935 hPa | - | - | - | - |
| 1777583111 | 22.78° C | 50% | 934.7 hPa | - | - | - | - |
| 1777582904 | 23.33° C | 50% | 934.7 hPa | - | - | - | - |
| 1777582003 | 23.89° C | 48% | 934.5 hPa | - | - | - | - |
| 1777581103 | 24.44° C | 47% | 934.5 hPa | - | - | - | - |
| 1777580203 | 24.44° C | 45% | 934.4 hPa | - | - | - | - |
| 1777579302 | 24.44° C | 48% | 934.4 hPa | - | - | - | - |
| 1777578402 | 24.44° C | 47% | 934.4 hPa | - | - | - | - |
| 1777577502 | 25.56° C | 44% | 934.4 hPa | - | - | - | - |
| 1777576601 | 26.11° C | 43% | 934.4 hPa | - | - | - | - |
| 1777575701 | 26.67° C | 42% | 934.3 hPa | - | - | - | - |
| 1777574801 | 26.67° C | 42% | 934.3 hPa | - | - | - | - |
| 1777573900 | 27.22° C | 41% | 934.3 hPa | - | - | - | - |
| 1777573000 | 26.67° C | 41% | 934.3 hPa | - | - | - | - |
| 1777572100 | 27.22° C | 40% | 934.4 hPa | - | - | - | - |
| 1777571200 | 26.67° C | 39% | 934.6 hPa | - | - | - | - |
| 1777570300 | 26.11° C | 39% | 934.8 hPa | - | - | - | - |
| 1777569399 | 26.67° C | 38% | 935 hPa | - | - | - | - |
| 1777568499 | 25.56° C | 39% | 935.1 hPa | - | - | - | - |
| 1777567599 | 25° C | 39% | 935.3 hPa | - | - | - | - |
| 1777566699 | 25° C | 40% | 935.5 hPa | - | - | - | - |
| 1777565799 | 23.89° C | 40% | 935.5 hPa | - | - | - | - |
* Rain since midnight (hover to see other rain measurements)
** Current wind speed in m/s (hover to see current wind gust speed)